Flag for Switzerland Weather past 2 weeks in Lausanne, Vaud, Switzerland

Now
44 °F

Quite cool.


Feels Like: 37 °F
Forecast: 38 / 47 °F
Wind: 14 mph from North

Location: Aigle

Current Time: Apr 1, 2015 at 8:08:58 AM

Latest Report: Apr 1, 2015 at 7:00 AM


Visibility: N/A

Pressure: 30.26 "Hg

Humidity: 53%

Dew point: 27 °F

Location of LausanneLocation

Historic Weather in Lausanne — Graph

°F

Lausanne temperature yesterday

Maximum temperature yesterday: 63 °F (at 11:00 AM)
Minimum temperature yesterday: 48 °F (at 8:00 AM)
Average temperature yesterday: 54 °F

Past Weeks' High & Low Weather Summary

 TemperatureHumidityPressure
High63 °F (Mar 31, 11:00 AM)98% (Mar 30, 11:00 PM)30.32 "Hg (Mar 30, 11:00 PM)
Low33 °F (Mar 28, 6:00 AM)42% (Mar 18, 5:00 PM)29.59 "Hg (Mar 25, 1:00 PM)
Average47 °F75%30.04 "Hg
* Reported Mar 17 5:00 AM — Apr 1 6:00 AM, Lausanne, Weather by CustomWeather, © 2015

Note: Actual official high and low records may vary slightly from our data, if they occured in-between our weather recording intervals... More about our weather records

Advertising

Lausanne weather history for previous 24 hours

 ConditionsComfort  
Time TempWeatherWind HumidityBarometerVisibility
6:00 AM
Wed, Apr 1
44 °FQuite cool.14 mph54%30.24 "HgN/A
4:00 AM47 °FCool.10 mph53%30.23 "HgN/A
3:00 AM49 °FCool.9 mph46%30.21 "HgN/A
2:00 AM49 °FCool.15 mph55%30.19 "HgN/A
1:00 AM49 °FCool.17 mph58%30.18 "HgN/A
12:00 AM50 °FCool.17 mph59%30.16 "HgN/A
11:00 PM
Tue, Mar 31
48 °FCool.10 mph72%30.15 "HgN/A
10:00 PM54 °FCool.3 mph49%30.11 "HgN/A
9:00 PM54 °FCool.10 mph51%30.09 "HgN/A
8:00 PM55 °FLight rain. Overcast.8 mph51%30.07 "Hg9 mi
7:00 PM57 °FRefreshingly cool.13 mph47%30.05 "HgN/A
6:00 PM58 °FRefreshingly cool.9 mph46%30.02 "HgN/A
5:00 PM58 °FLight rain. Overcast.5 mph50%30.01 "Hg9 mi
4:00 PM60 °FRefreshingly cool.9 mph44%30.00 "HgN/A
3:00 PM61 °FRefreshingly cool.13 mph48%30.01 "HgN/A
2:00 PM62 °FOvercast.10 mph55%30.00 "Hg16 mi
1:00 PM59 °FRefreshingly cool.9 mph59%29.99 "HgN/A
12:00 PM61 °FRefreshingly cool.12 mph47%29.98 "HgN/A
11:00 AM63 °FMild.7 mph44%29.98 "HgN/A
10:00 AM55 °FCool.5 mph75%30.03 "HgN/A
9:00 AM50 °FCool.3 mph86%30.05 "HgN/A
8:00 AM48 °FPartly sunny.2 mph93%30.03 "Hg19 mi
Weather by CustomWeather, © 2015

See weather overviewHow to use our weather pages